[[{"header":{"parameterUnit":"m.s-1","parameterCategory":1,"la1":30.2991,"la2":30.254,"lo1":-89.0895,"lo2":-89.0444,"dy":0.0017,"dx":0.0017,"nx":28,"ny":28,"refTime":"2023-08-27T03:00:00:Z","depth":0,"parameterNumber":2,"parameterNumberName":"U-component_of_WINDS"},"data":[0,0,0,0,0,0,0,0,0,0,0,0,0,0,0,0,0,0,0,0,0,0,0,0,0,0,0,0,0,0,0,0,0,0,0,0,0,0,0,0,0,0,0,0,0,0,0,0,0,0,0,0,0,0,0,0,0,0,2.9837,2.9841,0,3.0235,3.024,3.0244,3.0516,3.0518,3.052,3.0521,3.092,3.0928,3.0937,0,0,0,0,0,0,0,0,0,0,0,0,0,2.9306,2.9314,2.9837,2.9842,2.9847,3.0234,3.024,3.0245,3.0515,3.0518,3.052,3.0522,3.0917,3.0927,3.0938,0,0,0,0,0,0,0,0,0,0,0,0,0,2.9603,2.9317,2.9836,3.0028,3.005,3.0233,3.024,3.0247,3.0515,3.0518,3.0521,3.0523,3.0914,3.0926,3.0939,3.096,0,0,3.0979,3.0985,0,0,0,0,0,0,0,0,2.9586,2.9622,2.9995,3.0016,3.004,3.0329,3.0199,3.0485,3.0514,3.0338,3.0521,3.0525,3.072,3.0749,3.0817,3.0979,3.0996,3.098,3.0988,3.0994,3.0998,0,0,0,0,0,0,0,2.9565,2.9606,2.9994,3.0,3.0027,3.0093,3.0139,3.0255,3.0507,3.0353,3.0374,3.0418,3.0733,3.0804,3.0828,3.1002,3.098,3.0992,3.1,3.1005,3.1206,3.1204,0,0,0,0,0,0,2.9515,2.9588,2.9982,3.0006,2.9816,3.01,3.0152,3.0233,3.0507,3.0551,3.0415,3.0429,3.078,3.0813,3.0843,3.089,3.0994,3.1006,3.1014,3.1209,3.1206,3.1203,0,0,0,0,0,0,2.9502,2.9547,2.9966,2.9803,2.9861,3.0107,3.0196,3.0239,3.0311,3.0553,3.0599,3.0441,3.0784,3.0825,3.0931,3.0907,3.1012,3.1024,3.1212,3.1208,3.1204,3.0979,0,0,0,0,0,0,2.9486,2.9541,2.9552,2.9801,2.9869,3.0047,3.0194,3.0245,3.0334,3.0356,3.059,3.0632,3.0789,3.091,3.0944,3.0927,3.1034,3.1215,3.121,3.1205,3.0989,3.0968,3.0949,0,0,0,0,0,2.9466,2.947,2.9552,2.9598,2.9888,3.0045,3.0083,3.0267,3.033,3.0344,3.0501,3.0624,3.0904,3.0918,3.0959,3.0946,3.1217,3.1211,3.1206,3.0998,3.0972,3.095,0,0,0,0,0,0,2.9207,2.9506,2.96,2.9684,2.9838,3.009,3.0112,3.0232,3.0368,3.0383,3.0602,3.0653,3.0737,3.0852,3.0863,3.0983,3.1076,3.1078,3.0904,3.0882,3.0862,3.0832,3.1045,0,0,0,0,0,2.9161,2.9265,2.952,2.957,2.9643,2.9863,2.9938,3.0068,3.0234,3.0299,3.0463,3.0618,3.0742,3.0818,3.0945,3.1008,3.1064,3.1019,3.0999,3.0981,3.098,3.1026,3.101,3.1184,3.1184,3.1184,0,0,2.9064,2.9241,2.9292,2.9523,2.9657,2.9759,2.9916,3.0016,3.0095,3.0313,3.0426,3.0551,3.0739,3.0824,3.087,3.0923,3.0945,3.0974,3.0958,3.0968,3.1019,3.1002,3.0987,3.118,3.1181,3.1182,0,0,2.8942,2.9084,2.9145,2.9277,2.948,2.9628,2.9642,2.9879,2.9972,3.0089,3.0257,3.0352,3.0559,3.0687,3.0779,3.0711,3.0831,3.0746,3.064,3.0682,3.0668,3.0657,3.0635,3.0624,3.0744,3.0743,3.0743,0,2.8795,2.8959,2.9159,2.9253,2.9349,2.9557,2.962,2.9738,2.9969,3.0031,3.0088,3.0357,3.0497,3.0618,3.0602,3.0668,3.0692,3.0719,3.0655,3.0646,3.0638,3.0619,3.061,3.0732,3.0733,3.0734,3.0736,0,2.877,2.8881,2.8904,2.9129,2.9229,2.9304,2.9516,2.9593,2.9715,2.9856,2.9974,3.0151,3.0319,3.0357,3.0474,3.0495,3.0523,3.0613,3.0711,3.0607,3.0593,3.0587,3.0715,3.072,3.0723,3.0726,0,0,2.8491,2.883,2.8836,2.8942,2.9183,2.9272,2.9359,2.9528,2.9591,2.9744,2.9823,2.9997,3.0085,3.0189,3.0323,3.036,3.0298,3.0448,3.0456,3.0415,3.0335,3.0265,3.0253,3.038,3.0379,3.0379,3.032,0,2.8406,2.8577,2.8762,2.8867,2.8973,2.9175,2.9251,2.9406,2.9542,2.9651,2.98,2.9921,3.0027,3.0092,3.0137,3.0295,3.0285,3.0302,3.0455,3.0458,3.0402,3.0246,3.0172,3.0107,3.0316,3.0315,3.0314,0,2.8329,2.8479,2.8594,2.8832,2.8883,2.8948,2.9121,2.9222,2.9404,2.95,2.9619,2.9764,2.9866,2.9952,3.0096,3.0104,3.0178,3.0265,3.0267,3.0288,3.0379,3.0263,3.0091,3.0081,3.0307,3.0308,3.0308,0,2.8116,2.8346,2.8448,2.8532,2.881,2.8852,2.8969,2.9154,2.9245,2.9395,2.9457,2.9614,2.97,2.9818,3.0002,3.0048,3.0127,3.0228,3.021,3.0205,3.0216,3.0213,3.0054,3.0262,3.0262,3.0263,3.0263,0,2.8002,2.8065,2.8357,2.8418,2.8496,2.8709,2.878,2.8915,2.9079,2.917,2.9353,2.9434,2.9672,2.9781,2.9925,3.0024,3.0061,3.0141,3.0179,3.0126,3.0115,3.0176,3.0185,3.026,3.0261,3.0261,3.0262,0,2.7777,2.7975,2.8099,2.8354,2.842,2.8466,2.8684,2.8751,2.89,2.9013,2.9052,2.9283,2.9422,2.9618,2.9815,2.9912,2.9991,3.005,2.993,2.9952,2.9924,2.9924,2.9798,2.9794,3.0002,3.0,2.9998,0,2.7691,2.7746,2.8009,2.8085,2.8198,2.8317,2.8413,2.8625,2.8717,2.8932,2.8973,2.9127,2.9262,2.9474,2.9659,2.9812,2.9877,2.9823,2.9901,2.9847,2.9878,2.9873,2.988,2.9803,2.98,2.9797,2.9795,0,2.7518,2.7615,2.7748,2.7915,2.8026,2.8167,2.8316,2.8367,2.8612,2.8706,2.8853,2.8957,2.9162,2.9313,2.9492,2.9612,2.9743,2.9769,2.9774,2.9719,2.9648,2.9688,2.9879,2.9771,2.9773,2.9775,2.9776,2.9777,2.7362,2.7422,2.7618,2.776,2.7897,2.8033,2.8111,2.8271,2.8398,2.8584,2.8701,2.8842,2.9027,2.9282,2.9396,2.9509,2.9563,2.9568,2.957,2.9568,2.955,2.963,2.9542,2.9543,2.9544,2.9545,2.9546,0,2.72,2.7338,2.7467,2.7674,2.7786,2.7905,2.8078,2.8163,2.8287,2.8449,2.858,2.8749,2.8898,2.9096,2.9259,2.9312,2.9377,2.9347,2.9345,2.9372,2.9492,2.9473,2.9293,2.9293,2.9293,2.9293,2.9293,2.9293,2.7129,2.7238,2.7358,2.7536,2.7674,2.7816,2.7905,2.8033,2.8164,2.8347,2.8473,2.8603,2.8781,2.8959,2.91,2.9155,2.9207,2.9159,2.9231,2.934,2.9362,2.9384,2.9368,2.9168,2.9168,2.9103,2.9102,2.9101]},{"header":{"parameterUnit":"m.s-1","parameterCategory":1,"la1":30.2991,"la2":30.254,"lo1":-89.0895,"lo2":-89.0444,"dy":0.0017,"dx":0.0017,"nx":28,"ny":28,"refTime":"2023-08-27T03:00:00:Z","depth":0,"parameterNumber":3,"parameterNumberName":"V-component_of_WINDS"},"data":[0,0,0,0,0,0,0,0,0,0,0,0,0,0,0,0,0,0,0,0,0,0,0,0,0,0,0,0,0,0,0,0,0,0,0,0,0,0,0,0,0,0,0,0,0,0,0,0,0,0,0,0,0,0,0,0,0,0,-4.5853,-4.5847,0,-4.529,-4.5283,-4.5277,-4.4952,-4.4951,-4.495,-4.4949,-4.4354,-4.4339,-4.4325,0,0,0,0,0,0,0,0,0,0,0,0,0,-4.6631,-4.6618,-4.5854,-4.5847,-4.584,-4.5291,-4.5283,-4.5275,-4.4952,-4.4951,-4.4949,-4.4948,-4.4359,-4.4341,-4.4324,0,0,0,0,0,0,0,0,0,0,0,0,0,-4.6203,-4.6614,-4.5855,-4.5613,-4.5585,-4.5293,-4.5283,-4.5273,-4.4953,-4.4951,-4.4949,-4.4947,-4.4364,-4.4343,-4.4321,-4.422,0,0,-4.4254,-4.4244,0,0,0,0,0,0,0,0,-4.6227,-4.6174,-4.5655,-4.5629,-4.5598,-4.519,-4.5339,-4.492,-4.4953,-4.5192,-4.4949,-4.4946,-4.4632,-4.4588,-4.4486,-4.4192,-4.4167,-4.4252,-4.4238,-4.4229,-4.4223,0,0,0,0,0,0,0,-4.6257,-4.6197,-4.563,-4.5648,-4.5613,-4.5526,-4.5463,-4.5258,-4.4928,-4.5171,-4.5146,-4.5085,-4.4616,-4.4508,-4.4469,-4.4158,-4.4252,-4.4233,-4.4219,-4.421,-4.3746,-4.3747,0,0,0,0,0,0,-4.6328,-4.6224,-4.5648,-4.5613,-4.5915,-4.5513,-4.5443,-4.5322,-4.493,-4.4869,-4.5087,-4.5072,-4.4546,-4.4495,-4.4447,-4.4297,-4.4229,-4.4208,-4.4196,-4.3745,-4.3746,-4.3747,0,0,0,0,0,0,-4.6346,-4.628,-4.567,-4.5911,-4.5827,-4.5502,-4.5369,-4.5312,-4.5203,-4.4867,-4.4804,-4.5038,-4.4543,-4.4478,-4.4279,-4.4272,-4.4198,-4.4178,-4.3744,-4.3745,-4.3747,-4.4001,0,0,0,0,0,0,-4.637,-4.6289,-4.6251,-4.5913,-4.5816,-4.5518,-4.5368,-4.5302,-4.5168,-4.5143,-4.4804,-4.4746,-4.4537,-4.4314,-4.4257,-4.424,-4.4161,-4.3743,-4.3745,-4.3746,-4.3992,-4.4011,-4.4028,0,0,0,0,0,-4.6399,-4.6343,-4.6251,-4.6183,-4.5763,-4.5518,-4.5462,-4.5227,-4.517,-4.5125,-4.4909,-4.4757,-4.4285,-4.4296,-4.4229,-4.4206,-4.3742,-4.3744,-4.3746,-4.3983,-4.4007,-4.4027,0,0,0,0,0,0,-4.6682,-4.6294,-4.6188,-4.6022,-4.5807,-4.5464,-4.5401,-4.526,-4.5052,-4.5036,-4.4748,-4.4674,-4.4501,-4.4333,-4.4354,-4.4084,-4.3996,-4.3985,-4.4199,-4.4219,-4.4237,-4.4277,-4.4143,0,0,0,0,0,-4.6727,-4.6567,-4.6233,-4.6119,-4.6017,-4.573,-4.5614,-4.5452,-4.5214,-4.5119,-4.4888,-4.4658,-4.4456,-4.4329,-4.4126,-4.3968,-4.3885,-4.3919,-4.3937,-4.3954,-4.3945,-4.3842,-4.3851,-4.3754,-4.3754,-4.3754,0,0,-4.6814,-4.6582,-4.6497,-4.617,-4.5983,-4.5817,-4.5654,-4.5486,-4.5356,-4.5091,-4.4888,-4.4712,-4.4435,-4.4256,-4.4164,-4.411,-4.3954,-4.3956,-4.3972,-4.3953,-4.3845,-4.3854,-4.3863,-4.3755,-4.3755,-4.3755,0,0,-4.6886,-4.6699,-4.658,-4.6398,-4.612,-4.593,-4.5903,-4.5581,-4.5454,-4.5249,-4.5045,-4.4885,-4.4546,-4.4356,-4.4215,-4.4218,-4.4067,-4.4159,-4.425,-4.4153,-4.4161,-4.4166,-4.4159,-4.4161,-4.4153,-4.4154,-4.4154,0,-4.7027,-4.6774,-4.6535,-4.6378,-4.6237,-4.5997,-4.5869,-4.5703,-4.5371,-4.5276,-4.5223,-4.4791,-4.4588,-4.4357,-4.4358,-4.4255,-4.4207,-4.4193,-4.4181,-4.4183,-4.4184,-4.4174,-4.4173,-4.4166,-4.4165,-4.4164,-4.4162,0,-4.6958,-4.6786,-4.6722,-4.6414,-4.6266,-4.6125,-4.5858,-4.5736,-4.5589,-4.5402,-4.5192,-4.4941,-4.4681,-4.4615,-4.4467,-4.4361,-4.4336,-4.4237,-4.414,-4.421,-4.4195,-4.419,-4.4184,-4.418,-4.4176,-4.4173,0,0,-4.7187,-4.6751,-4.6731,-4.6586,-4.6263,-4.6121,-4.5968,-4.5718,-4.5616,-4.5396,-4.5254,-4.4974,-4.4879,-4.472,-4.4548,-4.4465,-4.4474,-4.4372,-4.4361,-4.4394,-4.4333,-4.4405,-4.4406,-4.4376,-4.4374,-4.4373,-4.4354,0,-4.7206,-4.6925,-4.6705,-4.6502,-4.6336,-4.6107,-4.5971,-4.5755,-4.5577,-4.5404,-4.5205,-4.5008,-4.4902,-4.4803,-4.4712,-4.4493,-4.4456,-4.4492,-4.4232,-4.4226,-4.4302,-4.4399,-4.4475,-4.4469,-4.4347,-4.4346,-4.4345,0,-4.719,-4.6984,-4.6768,-4.6459,-4.6381,-4.6265,-4.6016,-4.5858,-4.5605,-4.5481,-4.5306,-4.5129,-4.4948,-4.4877,-4.4619,-4.4649,-4.453,-4.4407,-4.44,-4.436,-4.4285,-4.4354,-4.4461,-4.4459,-4.4336,-4.4336,-4.4337,0,-4.737,-4.7038,-4.6864,-4.6748,-4.6387,-4.6309,-4.6153,-4.59,-4.5764,-4.5546,-4.5452,-4.5216,-4.5084,-4.4901,-4.4662,-4.4633,-4.4428,-4.4337,-4.4311,-4.4318,-4.4272,-4.4277,-4.4355,-4.421,-4.421,-4.421,-4.421,0,-4.741,-4.7284,-4.694,-4.6832,-4.6682,-4.643,-4.6286,-4.611,-4.5888,-4.5736,-4.5523,-4.5384,-4.5082,-4.4904,-4.4716,-4.4528,-4.4471,-4.436,-4.431,-4.4374,-4.4388,-4.4286,-4.4278,-4.4209,-4.421,-4.421,-4.421,0,-4.7582,-4.7348,-4.7142,-4.6819,-4.6734,-4.6638,-4.6356,-4.6239,-4.6052,-4.5863,-4.5803,-4.5506,-4.5286,-4.5033,-4.4728,-4.4601,-4.4425,-4.4356,-4.4512,-4.4481,-4.4468,-4.447,-4.4477,-4.4461,-4.4338,-4.4339,-4.4341,0,-4.762,-4.7518,-4.7186,-4.7073,-4.6925,-4.6745,-4.6605,-4.6352,-4.6215,-4.592,-4.5837,-4.5603,-4.5401,-4.5059,-4.481,-4.4575,-4.4494,-4.4513,-4.4456,-4.4523,-4.4484,-4.4491,-4.4476,-4.4526,-4.4529,-4.4531,-4.4533,0,-4.7708,-4.7598,-4.7409,-4.718,-4.7021,-4.6826,-4.6622,-4.654,-4.6244,-4.6099,-4.5875,-4.572,-4.541,-4.5177,-4.4911,-4.4742,-4.4585,-4.4554,-4.4534,-4.4595,-4.4687,-4.4629,-4.4546,-4.4553,-4.4551,-4.4549,-4.4548,-4.4547,-4.7807,-4.7705,-4.7456,-4.7251,-4.7073,-4.6887,-4.6761,-4.656,-4.637,-4.6103,-4.5964,-4.5741,-4.5486,-4.5114,-4.4951,-4.4767,-4.4714,-4.4688,-4.4679,-4.4675,-4.469,-4.4724,-4.4718,-4.4717,-4.4716,-4.4716,-4.4715,0,-4.7878,-4.7708,-4.7524,-4.7247,-4.7085,-4.6962,-4.6729,-4.6599,-4.6407,-4.6187,-4.5995,-4.5734,-4.5507,-4.5244,-4.4998,-4.4901,-4.4822,-4.4844,-4.4844,-4.4807,-4.4755,-4.4793,-4.4912,-4.4912,-4.4912,-4.4912,-4.4912,-4.4912,-4.7896,-4.7715,-4.7576,-4.7301,-4.7128,-4.6913,-4.679,-4.6615,-4.6437,-4.6159,-4.5972,-4.5805,-4.5563,-4.5299,-4.5083,-4.501,-4.4926,-4.4968,-4.4874,-4.4828,-4.4811,-4.4795,-4.4829,-4.4954,-4.4954,-4.4939,-4.4939,-4.4939]}]]